"Pseudo-MPEC" for ZTF0D8Z

Created 2020 Feb 15 18:07:20 UT using Find_Orb

Click here for an explanation of pseudo-MPECs

 
 Astrometry: 
     ZTF0D8Z  C2020 02 14.24787510 53 32.34 +34 06 56.1    ~2EKM       UNEOCPI41
     ZTF0D8Z  C2020 02 14.24822210 53 31.56 +34 07 02.6    ~2EKM       UNEOCPI41
     ZTF0D8Z  C2020 02 14.31025510 51 29.94 +34 26 10.7    ~2EEq 18.49RUNEOCPI41
     ZTF0D8Z  C2020 02 14.31060210 51 29.21 +34 26 17.1    ~2EEq 18.49RUNEOCPI41
     ZTF0D8Z  C2020 02 14.32531310 50 59.50 +34 30 49.8    ~2EEq 18.61RUNEOCPI41
     ZTF0D8Z  C2020 02 14.32566010 50 58.75 +34 30 55.9    ~2EEq 18.61RUNEOCPI41
     ZTF0D8Z  C2020 02 14.32576410 50 58.57 +34 30 58.7    ~2EEq 18.51RUNEOCPI41
     ZTF0D8Z  C2020 02 14.32611110 50 57.86 +34 31 04.9    ~2EEq 18.51RUNEOCPI41
     ZTF0D8Z NC2020 02 14Q7%b.FxVXD[KprXYl\_nOwbM89=Vc.]u$[u9`E9Wqqj=SO2]L4!hL01
     ZTF0D8Z NC2020 02 14;9\Y0l_NTvIX1EqLDd)[sYikLN%'qtu-S+ym3-i]?!\j'T0vi]VXL01
     ZTF0D8Z NC2020 02 14_G^g'f8!aEUFxH4+kKJFa:MAH]8ttJYA/GO9$j_3j]5$COGMjT2dL01
     ZTF0D8Z NC2020 02 14lPVfJ'FEjGH?`/y9y7NXZ.a'5RCjdb\:HyH=iI?.dEqc8K@]4ODvL01
     ZTF0D8Z KC2020 02 149.:Uj.tmLMoD=?c%)cQFU!v_5%]+C4ERNv7NC=mas2%xohOoC+psL01
     ZTF0D8Z KC2020 02 14D,x(7B6NDk$[sSuo:H[?!PaPy+6p$ZVWGy2^'1)_FayR0:k3!uu,L01
     ZTF0D8Z KC2020 02 14uZBE^V!;MHn_`Opi5qlPpDadDRx(M`#-\Hk8#aeK/%f_OUtFG$=kL01
     ZTF0D8Z KC2020 02 14e'jrYD,*WmfY9X\xa/#MH,)vS*!JP@+tleFK#?h6Xr2x4uU;DbD@L01
     ZTF0D8Z KC2020 02 14;)AeYpS.5KUaM2ZoIlou$n/yIKweIR9EAstrometrye/p+CMFp_eL01
     ZTF0D8Z KC2020 02 14.88874 10 30 42.94 +37 31 03.5    ~2ELq 18.6 VqNEOCPI93
     ZTF0D8Z KC2020 02 14.89312 10 30 31.58 +37 32 37.7    ~2ELq 18.6 VqNEOCPI93
     ZTF0D8Z KC2020 02 14br5^P]G*,r'rvyRN9x:HH2@SVmL-Zlo-[-7UA$M#PI)Ro[Fr)X86C77
     ZTF0D8Z KC2020 02 14.89750 10 30 20.20 +37 34 11.9    ~2ELq 18.5 VqNEOCPI93
     ZTF0D8Z KC2020 02 144`6;GKap2B$I:Yk`nodJRp@38pt*,cDwXEH?Z;@]USNMmvBW!NMAC77
     ZTF0D8Z KC2020 02 14ai3Wq'p;_;cX1wM+Z\^c/,9,c:Zk5vredacted;4-,tKgDfL_)^qC77
     ZTF0D8Z KC2020 02 14Z1oG;XWGK=dfw/!MxX[*R,rPMx5V7`k=`J2r'3CxQ/Oae#9C^COD203
     ZTF0D8Z KC2020 02 14o%qHn(_/s;3e8+FKND8t=WQVT5T]3#+K03ds`ysEk$lp,jsDjUo!958
     ZTF0D8Z KC2020 02 14/^UlrX.#^sjF*(W(k5NbA5@]%u,Z_k5QcH:@`gdb3HE3%MY:!A[?203
     ZTF0D8Z KC2020 02 140UViQ=J6.9AKa[EG/0jW/W6\6P]1eVuAgeL*5bl(]=jskuKUe\dw958
     ZTF0D8Z KC2020 02 14rF3]ygntb[_4?NveW4(!-xl\IH_fy132gJ1T`=SyQLN(7_ps:#q,958
     ZTF0D8Z KC2020 02 14_t.a3O`xMef8t_x7lRBs$d?N^YQ/?k*(,qWGpMt[mfUR?FyqCLw!958
     ZTF0D8Z KC2020 02 146pPt)'^Lh*Y_;UhTk6@FB_GAVjG-k^WA2`#pcO8Gbx=h-_vRu=SV203
     ZTF0D8Z HC2020 02 1493jat[ERW1lZ(//@Wrrt:Z372/.eMde@Q/'EX8$\@4E:Eq3sfm,#204
     ZTF0D8Z KC2020 02 14Y;eEBOdc[tja?qsA/wW)eVC0(0)nW6K7Q6\t?]t'amR4h;2EDwVBK63
     ZTF0D8Z KC2020 02 14b^,kRd[#!3m7a27x3f%NY2cHMOGL#nh;T4moJs\=dCPu=hUE!gbIK63
     ZTF0D8Z KC2020 02 14:7Kfr(4:DCN7aDb5ZYy$c!SC.yOhjZM0RVylBuk]?-rSgrWPMe1K204
     ZTF0D8Z KC2020 02 14s7JI%Lm9TWkdV8dR3/6,=b_^Zq4b\y3U6]XpcK/q)U[9myl/\2LDK63
     ZTF0D8Z KC2020 02 14q0YhxAJxTZhkl^.H!#anpa:PJvbvu3`TV^uZ6On%@ac(Ye.ZhJ(8595
     ZTF0D8Z KC2020 02 14eCh5s*enrKHNcCbrW%lBOQ.]evam5L6W;0b$4+'boJ$ow[NiSpr*204
     ZTF0D8Z KC2020 02 14XVoUq=DD-!9==tvQ%#mN'rw$-KH;v@yTPIcHf-Fsc_kZ3Af9xYA%595
     ZTF0D8Z KC2020 02 14+?^mD,b@aOW08YP%$=oQRj=EhQfG6_+]*kE$r-S)qFbHFAL=9unE595
     ZTF0D8Z KC2020 02 14efj-q1T-p`kT+6YWw2:o2Vq2wwOkLx67'D5lRvblA=xXPU/bp$uO595
     ZTF0D8Z KC2020 02 14a$L7oxi_i-fgB2@rO2:F0rv@[8j:gpiONpfwH/]l#Y86S0efJePv160
     ZTF0D8Z KC2020 02 14aJXy:Lge;pme6k4E(Z;_9Sum=:3h%c@4P@(aGr1o]G:KlB+-'y:W160
     ZTF0D8Z KC2020 02 14lWK%y+BK0HEm%`nwqcZr#`dclickykK'De86wcovHlntqsIv4s_'160
     ZTF0D8Z KC2020 02 14-X+mv*9He]gWNuw;CicqFZEIVYg)o7vT^s8QuXi5q[0HPTlm%8NJ160
     ZTF0D8Z KC2020 02 14;^))hRYx`qKx#FVF=FqxV?(d1uj##:?bxH*T=R:h$lE$#EAIs%\U160
     ZTF0D8Z KC2020 02 15DmQ4q.(jJZl.ZFKg:nk,mI/9E2U8kN69YJdg,T8gFF!lLh,tYlg]104
     ZTF0D8Z KC2020 02 15VZ(h6Z[Npt-t^O'8An^AI*G8jAK]c.9C6[37o?2iM-NVhfw6%_c@104
     ZTF0D8Z KC2020 02 15wTaIk$W^HH?[_5*$Ht+/awB83!1LeQJslMdq^?,uTE19$3g/viKM104
     ZTF0D8Z KC2020 02 151=:3NfRYjKL=iCE.@J.+c2rPunsu+5rFVJFORdO@ckN];6CYH;/D104
     ZTF0D8Z KC2020 02 15.11578910 20 06.08 +38 51 35.2    ~2FBM 18.0 GVNEOCPC95
     ZTF0D8Z KC2020 02 15d)D_hO:c+dC+muo1J5Noe0T.iWJS!h6yM$pVYa\m)QnU,BJ$a4XpW34
     ZTF0D8Z IC2020 02 15$it1jGDC%:wM;3ObZ%051,_iGs!qQkk[a=Y+vs+sFF`O/Vch@RSLW34
     ZTF0D8Z KC2020 02 157BteCkp47gJR*)][WhTWioaRKJ@F#MrnoF38l^']KQ5/4sjk;yI^V01
     ZTF0D8Z KC2020 02 15.13428710 19 11.23 +38 58 00.4    ~2FBM 18.1 GVNEOCPC95
     ZTF0D8Z KC2020 02 15HdjM40sk]l:,lhereMy8euj1eE8D7-w:lEX6slGl8^8Rk_YDwEJMW34
     ZTF0D8Z KC2020 02 155[8iZ*hq7ee]1Ct^juP\YC4$(GYlL,\ax%B(mm@Y3WD0Q(26:UJrW34
     ZTF0D8Z KC2020 02 157LuqrG#Tc4+^[xXne68vAtPH-gbkZT=UK6W(D@^2%CnWUbCkU?gOV01
     ZTF0D8Z KC2020 02 15o566QS(eayuf5Rn4L-FQPn.+WQQfJrota`08mlWTlR@[^ho0up;KW34
     ZTF0D8Z KC2020 02 15.15226510 18 17.67 +39 04 14.0    ~2FBM 18.0 GVNEOCPC95
     ZTF0D8Z KC2020 02 15dJ1uUa41TuqdgdWD#Q8^5.X;'B?lrOb3/vDcKo'lY^kQ;Bi1Jb1L850
     ZTF0D8Z KC2020 02 15@'-4ObH89F!)1uAV']xJ7ctSOsV.50b$:$RqL.jh7U21yI/I:rxmV01
     ZTF0D8Z KC2020 02 15GxfW`VB4\':hRfvB/gw'.#q)D'1EZRW@byCv[$6#VVS?A*Fu9ydd850
     ZTF0D8Z KC2020 02 15=.k(TK4eFvdiLyGWsV08x;9s.srr7i[)Li.`T.7QcqxsVSfor*@kV01
     ZTF0D8Z KC2020 02 15(5^!C2NpI=Q,ito*N#AFU^q-dj==N^cVs!Xq3`g7#rCGFl+tpt%dH21
     ZTF0D8Z KC2020 02 15kf)5*Fdhct;?,2RlSCJKAKqexplanation3VE]\sbF)).3PLUmFpH21
     ZTF0D8Z KC2020 02 152S]?y6bI]tgqPgTf`qgYpAgmBHmlZOS@p#\Sx#J(jYI+*6*`_K;,H21
     ZTF0D8Z  C2020 02 15.21675 10 15 47.35 +39 29 08.4    ~2F5b 19.0 GVNEOCPI52
     ZTF0D8Z KC2020 02 15mcy9wTCQ.c!1yT/YlGl;,v+JZE/+`;R#nk!H4,VQ-h*;QaNw.@l:H21
     ZTF0D8Z  C2020 02 15.21708 10 15 46.34 +39 29 15.5    ~2F5b 18.9 GVNEOCPI52
     ZTF0D8Z  C2020 02 15.21740 10 15 45.34 +39 29 23.2    ~2F5b 18.9 GVNEOCPI52
     ZTF0D8Z  C2020 02 15.21772 10 15 44.32 +39 29 30.6    ~2F5b 18.9 GVNEOCPI52
     ZTF0D8Z KC2020 02 15pQPwM57Bg;63p9!oS/77JCxSt,sgjrtIE0agwVXdqf(@sk20;U/HH21
     ZTF0D8Z  C2020 02 15.26630810 13 12.53 +39 47 40.3    ~2FAq 18.74RUNEOCPI41
     ZTF0D8Z  C2020 02 15.26665510 13 11.30 +39 47 48.3    ~2FAq 18.74RUNEOCPI41
     ZTF0D8Z  C2020 02 15.26723410 13 09.61 +39 48 01.3    ~2FAq 18.85RUNEOCPI41
     ZTF0D8Z  C2020 02 15.26758110 13 08.33 +39 48 09.0    ~2FAq 18.85RUNEOCPI41
     ZTF0D8Z  C2020 02 15.27961810 12 29.50 +39 52 42.1    ~2FAq 18.56RUNEOCPI41
     ZTF0D8Z  C2020 02 15.27996510 12 28.33 +39 52 49.4    ~2FAq 18.56RUNEOCPI41
     ZTF0D8Z  C2020 02 15.30397010 11 09.50 +40 01 53.0    ~2FAq 19.04gUNEOCPI41
     ZTF0D8Z  C2020 02 15.30431710 11 08.35 +40 02 00.6    ~2FAq 19.04gUNEOCPI41

Station data:
(104) San Marcello Pistoiese  (N44.063037 E10.804200)  Italy. 0.40-m f/5
   reflector.
(160) Castelmartini  (N43.823061 E10.841440)  Italy.
(203) GiaGa Observatory  (N45.541408 E8.995500)  Italy. 0.13-m f/6.4
   refractor.
(204) Schiaparelli Observatory  (N45.867933 E8.770800)  Italy.  Observer L.
   Buzzi. 0.60-m f/4.64 Newtonian + CCD.
(595) Farra d'Isonzo  (N45.915734 E13.525780)  Italy.  Observers L.
   Bittesini, F. Fabris, E. Pettarin, F. Piani. Measurer E. Pettarin. 0.30-m
   f/4.5 reflector + CCD.
(850) Cordell-Lorenz Observatory, Sewanee  (N35.204094 W85.919800)
   US/Tennessee. 0.3-m Schmidt-Cassegrain.
(958) Observatoire de Dax  (N43.693327 W1.030390)  France.
(C77) Bernezzo Observatory  (N44.385250 E7.453500)  Italy.
(C95) SATINO Remote Observatory, Haute Provence  (N43.932042 E5.712390)
   France. 0.60-m f/3.2 Newtonian reflector + CCD.
(H21) Astronomical Research Observatory, Westfield  (N39.483057 W87.968270)
   US/Illinois. 0.76-m f/3.0 astrograph + CCD.
(I41) Palomar Mountain--ZTF  (N33.357340 W116.859780)  US/California. 1.2-m
   f/2.44 Oschin Schmidt + CCD.
(I52) Steward Observatory, Mt. Lemmon Station  (N32.442547 W110.788920)
   US/Arizona.  Observers T. A. Pruyne, B. M. Africano, E. J. Christensen, G.
   A. Farneth, D. C. Fuls, A. R. Gibbs, A. D. Grauer, H. Gröller, J. A.
   Johnson, R. A. Kowalski, S. M. Larson, G. J. Leonard, D. Rankin, R. L.
   Seaman, F. C. Shelly. 1.0-m reflector + CCD.
(I93) St Pardon de Conques  (N44.558710 W0.203000)  France.  Observer F.
   Losse. 0.40-m f/3.7 reflector + CCD.
(K63) G. Pascoli Observatory, Castelvecchio Pascoli  (N44.082410 E10.462000)
   Italy.
(L01) Višnjan Observatory, Tičan  (N45.290900 E13.749300)  Croatia.
   Observers K. Korlević, E. Pettarin. Measurer E. Pettarin. 1.0-m f/2.9
   reflector + CCD.
(V01) Mountainville Observatory, Alpine  (N40.448904 W111.760890)  US/Utah.
(W34) Squirrel Valley Observatory, Columbus  (N35.225393 W82.154700)
   US/North Carolina.  Observer R. L. Flynn. 0.35-m f/1.9 Schmidt-Cassegrain
   + CCD.

Orbital elements:  ZTF0D8Z
   Perihelion 2020 May 9.027023 +/- 0.0232 TT =  0:38:54 (JD 2458978.527023)
Epoch 2020 Feb 15.0 TT = JDT 2458894.5   Earth MOID: 0.0044   Ve: 0.0779
M 235.32332221 +/- 0.019            Me: 0.0030                AutoNEOCP
n   1.48376883 +/- 0.000191         Peri.  327.32000 +/- 0.0030
a   0.76130477 +/- 6.52e-5          Node   332.08036 +/- 0.0021
e   0.4220194 +/- 0.000214          Incl.    4.93352 +/- 0.0038
P   0.66/242.62d           H 25.9   G  0.15   U  7.0  
q 0.44001937 +/- 0.0002    Q 1.08259017 +/- 7.53e-5
From 80 observations 2020 Feb. 14-15 (25.4 hr); mean residual 0".49
Residuals in arcseconds: 
200214 I41  .58+  .09+    200214 958  .21+  .19-    200215 W34  .84-  .22-    
200214 I41  .85-  .17+    200214 958  .51-  .51-    200215 W34  1.0-  .21-    
200214 I41  1.1+  .13-    200214 203  .18+  .63-    200215 V01  .03-  .59+    
200214 I41  .67+  .14-    200214 204  .08-  .17-    200215 W34  .40-  .20+    
200214 I41  .44+  .65+    200214 K63  .10+  .44+    200215 C95  .01+  .01-    
200214 I41  .13-  .34+    200214 K63  1.3-  1.0+    200215 850  .04+  1.7+    
200214 I41  .26+  1.2+    200214 204  .03-  .25-    200215 V01  .34-  .05+    
200214 I41  .18+  1.0+    200214 K63  .86-  .31+    200215 850  .92-  .34+    
